• Processing (Info)

  • MPEC 2014-F15 : 2014 FH

    The following Minor Planet Electronic Circular may be linked-to from your own Web pages, but must not otherwise be redistributed electronically.

    A form allowing access to any MPEC is at the bottom of this page.


    Read MPEC 2014-F14 Read MPEC 2014-F16


    M.P.E.C. 2014-F15                                Issued 2014 Mar. 22, 13:04 UT
    
         The Minor Planet Electronic Circulars contain information on unusual
             minor planets and routine data on comets.  They are published
       on behalf of Commission 20 of the International Astronomical Union by the
              Minor Planet Center, Smithsonian Astrophysical Observatory,
                              Cambridge, MA 02138, U.S.A.
    
                 Prepared using the Tamkin Foundation Computer Network
    
                                  MPC@CFA.HARVARD.EDU
                URL https://www.minorplanetcenter.net/    ISSN 1523-6714
    
                                        2014 FH
    
    Observations:
         K14F00H* C2014 03 21.42355 14 13 34.70 +25 00 39.8          18.9 VqEF015G96
         K14F00H  C2014 03 21.42877 14 13 13.80 +25 00 32.3          18.2 VqEF015G96
         K14F00H  C2014 03 21.43816 14 12 35.79 +25 00 18.3          18.6 VqEF015703
         K14F00H  C2014 03 21.43919 14 12 31.82 +25 00 15.9          18.4 VqEF015G96
         K14F00H  C2014 03 21.44266 14 12 17.97 +25 00 10.7          17.6 VqEF015703
         K14F00H  C2014 03 21.44716 14 11 59.66 +25 00 04.1          18.6 VqEF015703
         K14F00H  C2014 03 21.45166 14 11 42.35 +24 59 56.1          18.0 VqEF015703
         K14F00H  C2014 03 21.46292 14 10 57.36 +24 59 35.6          18.0 VqEF015G96
         K14F00H  C2014 03 21.46492 14 10 49.41 +24 59 31.9          18.1 VqEF015G96
         K14F00H  C2014 03 21.46693 14 10 41.48 +24 59 28.2          18.1 VqEF015G96
         K14F00H  C2014 03 21.46894 14 10 33.53 +24 59 24.6          18.1 VqEF015G96
         K14F00H  C2014 03 21.48807 14 09 18.46 +24 58 47.9          18.6 VqEF015G96
         K14F00H  C2014 03 21.48827 14 09 17.61 +24 58 47.3          18.2 VqEF015G96
         K14F00H  C2014 03 21.48848 14 09 16.79 +24 58 47.0          17.9 VqEF015G96
         K14F00H  C2014 03 21.48869 14 09 15.99 +24 58 46.7          18.2 VqEF015G96
         K14F00H KC2014 03 22.13255 13 34 17.36 +24 26 22.6                uEF015118
         K14F00H KC2014 03 22.13748 13 34 03.64 +24 26 03.1                uEF015118
         K14F00H KC2014 03 22.14241 13 33 49.96 +24 25 43.9                uEF015118
         K14F00H KC2014 03 22.14733 13 33 36.36 +24 25 24.8                uEF015118
         K14F00H KC2014 03 22.15225 13 33 22.82 +24 25 05.2                uEF015118
         K14F00H KC2014 03 22.28786913 27 33.25 +24 17 06.3          19.0 VuEF015H21
         K14F00H KC2014 03 22.29046213 27 26.54 +24 16 56.3          19.1 VuEF015H21
         K14F00H KC2014 03 22.29305413 27 19.85 +24 16 46.8          18.9 VuEF015H21
         K14F00H KC2014 03 22.29565413 27 13.13 +24 16 36.4          19.2 VuEF015H21
         K14F00H KC2014 03 22.29822013 27 06.49 +24 16 26.6          19.0 VuEF015H21
         K14F00H  C2014 03 22.35555 13 24 44.03 +24 13 01.0          18.2 VqEF015G96
         K14F00H  C2014 03 22.35697 13 24 40.45 +24 12 55.5          18.2 VqEF015G96
         K14F00H  C2014 03 22.35839 13 24 36.90 +24 12 49.8          18.5 VqEF015G96
         K14F00H  C2014 03 22.35980 13 24 33.34 +24 12 44.2          18.4 VqEF015G96
    
    Observer details:
    118 Modra.  Observer S. Gajdos.  0.6-m f/5.5 reflector + CCD.
    703 Catalina Sky Survey.  Observer S. M. Larson.  Measurers E. J. Christensen,
        A. R. Gibbs, A. D. Grauer, R. E. Hill, J. A. Johnson, R. A. Kowalski,
        S. M. Larson, F. C. Shelly.  0.68-m Schmidt + CCD.
    G96 Mt. Lemmon Survey.  Observer R. A. Kowalski.  Measurers E. J. Christensen,
        A. R. Gibbs, A. D. Grauer, R. E. Hill, J. A. Johnson, R. A. Kowalski,
        S. M. Larson, F. C. Shelly.  1.5-m reflector + CCD.
    H21 Astronomical Research Observatory, Westfield.  Observer R. Holmes.
        Measurers L. Buzzi, S. Foglia, T. Vorobjov, T. Linder.  0.76-m f/3.0
        astrograph + CCD.
    
    Orbital elements:
    2014 FH                                                  Earth MOID = 0.0209 AU
    Epoch 2014 May 23.0 TT = JDT 2456800.5                  MPC
    M  46.50986              (2000.0)            P               Q
    n   0.43896829     Peri.  238.01712     +0.61261543     -0.79009173
    a   1.7146703      Node   174.06639     +0.77686363     +0.59693478
    e   0.8498801      Incl.   11.93963     +0.14555146     +0.13936973
    P   2.25           H   23.4           G   0.15           U   9
    Residuals in seconds of arc
    140321 G96 (7.4-  0.4+)   140321 G96  0.6-  0.5+    140322 H21  0.3-  0.2+
    140321 G96 (4.3-  0.7+)   140321 G96  0.8+  0.5+    140322 H21  0.1-  0.2+
    140321 703 (6.3-  1.2+)   140321 G96  0.2-  0.3+    140322 H21  0.2+  0.6+
    140321 G96 (4.2-  0.5+)   140321 G96  0.2-  0.4+    140322 H21  0.2+  0.2+
    140321 703 (2.9-  0.8+)   140321 G96  0.1+  0.6+    140322 H21  0.0   0.3+
    140321 703 (6.8-  1.6+)   140322 118  0.1-  0.7+    140322 G96  0.4-  0.2+
    140321 703 (2.3+  1.2+)   140322 118  0.4-  0.4+    140322 G96  0.6-  0.3+
    140321 G96  0.6-  0.5+    140322 118  0.7-  0.4+    140322 G96  0.4-  0.1+
    140321 G96  0.9-  0.4+    140322 118  0.8-  0.5+    140322 G96  0.7-  0.0
    140321 G96  0.5-  0.4+    140322 118  0.6-  0.2+
    
    Ephemeris:
    2014 FH                  a,e,i = 1.71, 0.85, 12                  q = 0.2574
    Date    TT    R. A. (2000) Decl.     Delta      r     Elong.  Phase     V
    2014 02 20    22 50 07.9 -13 33 04   0.5288  0.4753     9.5   159.9    31.3
    ...
    2014 03 07    22 31 09.0 -13 05 23   0.2201  0.7784    12.0   164.6    32.5
    ...
    2014 03 15    21 35 26.3 -07 43 49   0.08411 0.9233    31.1   146.2    25.6
    ...
    2014 03 21    14 45 03.1 +24 59 47   0.04169 1.0249   133.0    45.3    18.3
    2014 03 22    13 40 41.3 +24 35 38   0.05389 1.0413   145.7    32.6    18.5
    2014 03 23    13 02 06.6 +23 30 39   0.06827 1.0575   152.3    26.0    18.9
    ...
    2014 03 29    11 48 43.5 +19 33 25   0.1669  1.1519   155.2    21.4    20.9
    ...
    2014 04 06    11 29 03.9 +17 37 13   0.3074  1.2705   147.4    25.1    22.5
    ...
    2014 04 21    11 23 32.8 +15 30 10   0.5870  1.4738   133.9    29.4    24.4
    
    A. U. Tomatic                (C) Copyright 2014 MPC           M.P.E.C. 2014-F15
    

    Read MPEC 2014-F14 Read MPEC 2014-F16


    MPEC number:

    Enter an MPEC number in one of the following forms:

    • 1997-B01 (the full form)
    • J97B01 (the packed version of the full form)
    • B01 (the abbreviated form)